sat.trackr.live / text

‹ back to catalog

STARLINK-2071

NORAD 47361 · 2021-005N

PAYLOAD ACTIVE UNKNOWN

§ Identity

Operator
Country
US
Launch date
2021-01-20
Launch site
AFETR
Launch vehicle
Mass (kg)
RCS (m²)

Purposes: comms

External: N2YO · Heavens-Above · Gunter

§ Orbital elements

Epoch: 2026-09-09T17:54:56.340288Z

Period
94.01 min
Inclination
53.1583°
Eccentricity
0.0001518
Mean motion
15.31695347 rev/d
Perigee alt
469.7 km
Apogee alt
471.8 km
Semi-major
6,848.9 km
B*
-1.3252e-5
RAAN
260.8889°
Arg perigee
103.0139°
Mean anomaly
257.1032°
Rev number
31,157

§ Raw data

STARLINK-20711 47361U 21005N   26252.74648542 -.00000776  00000+0 -13252-4 0  99942 47361  53.1583 260.8889 0001518 103.0139 257.1032 15.31695347311572

JSON: /api/v1/satellites/47361 · /tle

For live sub-satellite position, see the globe view (requires WebGL).

§ Visibility from observer

Set your observer location to see the next 7 days of passes ≥ 10°. The values pass through the URL so the page stays shareable.

No JS? Fill the form by hand. The geolocation button needs JavaScript.